Regional Weather Roundup
Issued by NWS

Home | Current Version | Previous Version | Text Only | Print | Product List | Glossary On
Versions: 1 2 3 4 5 6 7 8 9 10 11 12 13 14 15 16 17 18 19 20 21 22 23 24 25 26 27 28 29 30 31 32 33 34 35 36 37 38 39 40 41 42 43 44 45 46 47 48 49 50
000
ASUS43 KMKX 211621
RWRWI

WISCONSIN REGIONAL WEATHER ROUNDUP
NATIONAL WEATHER SERVICE MILWAUKEE/SULLIVAN WI
1000 AM CST FRI NOV 21 2014

NOTE: "FAIR" INDICATES FEW OR NO CLOUDS BELOW 12,000 FEET WITH NO
SIGNIFICANT WEATHER AND/OR OBSTRUCTIONS TO VISIBILITY.

WIZ001-002-006>008-014>016-023>028-211700-
NORTHWEST WISCONSIN

CITY           SKY/WX    TMP DP  RH WIND       PRES   REMARKS
SUPERIOR ARPT  MOSUNNY   15   6  67 SW12      30.12F WCI   1
ASHLAND        CLOUDY    16   1  51 S13       30.15F WCI   2
HAYWARD        MOSUNNY   12   3  67 S12       30.16F WCI  -2
SIREN          MOSUNNY   15   6  65 S9        30.15F WCI   4
CUMBERLAND     MOSUNNY   12   9  85 S13       30.17F WCI  -3
RICE LAKE      MOSUNNY   11   8  89 SE8       30.21F WCI  -1
CHETEK         MOSUNNY   13   7  77 SE6       30.21F WCI   4
LADYSMITH      MOSUNNY   10   7  85 S8        30.22F WCI  -1
EAU CLAIRE     MOSUNNY   15   4  61 S14       30.24F WCI   0
MENOMONIE      SUNNY     17   6  62 S9        30.24F WCI   6
NEW RICHMOND   MOSUNNY   16   7  69 S13       30.18F WCI   2
OSCEOLA        MOSUNNY   17   8  69 S12       30.20F WCI   4
$$

WIZ003>005-009-010-017-018-211700-
NORTH CENTRAL WISCONSIN

CITY           SKY/WX    TMP DP  RH WIND       PRES   REMARKS
MANITOWISH WTR CLOUDY    10   1  66 S8        30.16F WCI  -2
ARBOR VITAE    CLOUDY    11   3  68 S13       30.17F WCI  -4
WOODRUFF       CLOUDY    11   3  68 S13       30.17F WCI  -4
RHINELANDER    CLOUDY    10   1  67 SW16      30.21S WCI  -7
EAGLE RIVER    PTSUNNY   11   0  61 SW10      30.18F WCI  -3
LAND O LAKES   CLOUDY    12   3  65 SW9       30.17F WCI   0
PHILLIPS       MOSUNNY   12   2  64 S9        30.18F WCI   0
TOMAHAWK       PTSUNNY   11   3  69 S5        30.23F WCI   3
MEDFORD        MOSUNNY   11   3  67 S9        30.22F WCI  -1
MERRILL        MOSUNNY   12   2  64 SW8G17    30.25F WCI   0
$$

WIZ029-030-035-036-043>047-211700-
CENTRAL WISCONSIN

CITY           SKY/WX    TMP DP  RH WIND       PRES   REMARKS
WAUSAU         MOSUNNY   11   3  70 S10       30.27F WCI  -3
MOSINEE        SUNNY     12   3  67 S15       30.29S WCI  -4
MARSHFIELD     MOSUNNY   15   3  59 S13       30.26F WCI   1
STEVENS POINT  SUNNY     13   1  60 S10       30.31S WCI   0
WAUPACA        SUNNY     19   5  55 S9        30.36S WCI   7
WAUTOMA        SUNNY     18   3  51 VRB7      30.36F WCI   9
WISC RAPIDS    MOSUNNY   15   0  51 S14G20    30.32F WCI   0
CAMP DOUGLAS   MOSUNNY   18   5  57 S10       30.32F WCI   6
$$

WIZ011>013-019>022-031-037>040-048>050-211700-
NORTHEAST WISCONSIN

CITY           SKY/WX    TMP DP  RH WIND       PRES   REMARKS
ANTIGO         MOSUNNY   12   1  63 SW13      30.25F WCI  -3
SHAWANO        SUNNY     19   4  53 SW9       30.34F WCI   8
OCONTO         SUNNY     18   3  51 SW13G18   30.35F WCI   5
STURGEON BAY   MOSUNNY   19   3  49 SW12      30.34F WCI   7
GREEN BAY      SUNNY     17   5  59 SW12      30.38S WCI   4
MANITOWOC      SUNNY     23   7  50 SW10      30.39S WCI  12
APPLETON       MOSUNNY   16   3  57 S10       30.35F WCI   3
CLINTONVILLE   SUNNY     18   5  57 SW9       30.34F WCI   6
OSHKOSH        SUNNY     18   5  57 S10       30.37F WCI   6
$$

WIZ032>034-041-042-053>061-211700-
SOUTHWEST WISCONSIN

CITY           SKY/WX    TMP DP  RH WIND       PRES   REMARKS
LA CROSSE      MOSUNNY   18   7  62 S14       30.33R WCI   4
SPARTA         MOSUNNY   18   4  54 S12       30.32S WCI   6
VIROQUA        MOSUNNY   17   6  62 S9        30.29S WCI   6
BOSCOBEL       SUNNY     20   7  57 S8        30.37F WCI  10
PRAIRIE DU CHI MOSUNNY   19   7  59 S5        30.36F WCI  12
PLATTEVILLE    SUNNY     19  10  65 S12       30.36S WCI   7
$$

WIZ056-057-062-063-064-067-068-211700-
SOUTH CENTRAL WISCONSIN

CITY           SKY/WX    TMP DP  RH WIND       PRES   REMARKS
REEDSBURG      SUNNY     18   6  58 S12       30.35S WCI   6
BARABOO/DELLS  SUNNY     19   4  51 S12       30.35S WCI   7
LONE ROCK      SUNNY     19   6  57 SE6       30.38F WCI  11
MINERAL POINT  SUNNY     19   9  63 SE13      30.34S WCI   7
MADISON        SUNNY     19   5  54 S13       30.38S WCI   6
MIDDLETON      SUNNY     21   4  47 S12       30.38S WCI   9
WATERTOWN      SUNNY     20   6  55 S7        30.39S WCI  11
MONROE         SUNNY     19   9  63 SE14      30.36F WCI   6
JANESVILLE     SUNNY     21   7  53 SW12      30.40S WCI   9
$$

WIZ051-052-058>065-066-070>072-211700-
SOUTHEAST WISCONSIN

CITY           SKY/WX    TMP DP  RH WIND       PRES   REMARKS
MILWAUKEE      MOSUNNY   21   2  43 SW12      30.43R WCI   9
WAUKESHA       SUNNY     18   3  53 S7        30.42R WCI   8
MILWAUKEE/TIMM SUNNY     19   1  45 S8        30.43S WCI   9
RACINE         SUNNY     22   4  46 S7        30.45S WCI  13
BURLINGTON     SUNNY     20   6  53 S8        30.42S WCI  10
KENOSHA        SUNNY     22   6  50 VRB6      30.43S WCI  14
FOND DU LAC    SUNNY     19   4  51 S10       30.38F WCI   7
SHEBOYGAN      SUNNY     21   5  50 SW12      30.39F WCI   9
WEST BEND      SUNNY     21   3  45 S9        30.39F WCI  11
JUNEAU         SUNNY     17   5  59 SE8       30.40S WCI   7
$$

LSZ147-162-211700-
LAKE SUPERIOR

STATION/POSITION TIME  TEMP    WIND        PRES    WAVE
                       AIR SEA DIR/SP/G            HT/PER
                 (UTC) (F)     (DEG/KT/KT) (MB)    (FT/S)
DEVILS ISLAND    1600   17     190/ 10/ 14 1021.8F
PORT WING        1500   15     210/  9/ 13 1021.3F
SAXON HARBOR     1500   15     190/  7/ 16 1021.7F
$$

LMZ867-665-643>646-211700-
LAKE MICHIGAN

STATION/POSITION TIME  TEMP    WIND        PRES    WAVE
                       AIR SEA DIR/SP/G            HT/PER
                 (UTC) (F)     (DEG/KT/KT) (MB)    (FT/S)
CHAMBERS ISLAND  1500   18     200/  7/ 15 1027.4S
N MID LAKE BUOY  1550   24 42  260/ 17/ 21 1028.4S   2/ 4
NORTHPORT PIER   1609   21     230/  7/ 14 1027.1S
SISTER BAY       1543          270/ 15/ 17   N/A
ALGOMA LAKESHORE 1543          250/ 11/ 14   N/A
KEWAUNEE LAKESHO 1600   19     230/  7/ 13 1027.4F
SHEBOYGAN LAKESH 1600   21 34  200/ 13/ 15 1031.0F
PORT WASHINGTON  1500   18     260/  7/  8 1030.8
ATWATER BUOY     1600   20     240/  8/ 10 1031.0R
MILWAUKEE LAKESH 1600   21     200/ 10/ 12   N/A
S MID LAKE BUOY  1550   26 43  220/  6/ 10 1032.2R   3/ 6
KENOSHA   LAKESH 1600   21     170/  6/  8 1030.8S
$$

TC  - TEMPERATURE IN CELSIUS
VSB - VISIBILITY IN STATUTE MILES
WCI - WIND CHILL INDEX
HX  - HEAT INDEX




USA.gov is the U.S. government's official web portal to all federal, state and local government web resources and services.